{"data":{"norad_id":69291,"intl_designator":"2026-118AA","name":"KUIPER-00608","alt_names":[],"object_type":"PAYLOAD","status":"ACTIVE","operator":null,"country":"US","launch_date":"2026-05-29","launch_site_code":"AFETR","launch_vehicle":null,"mission":null,"orbit_class":"UNKNOWN","rcs_meters":null,"size_class":null,"mass_kg":null,"dimensions":null,"purposes":[],"wikipedia_slug":null,"has_3d_model":false,"image_url":null,"decayed_at":null,"tle_current":{"epoch":"2026-09-19T21:55:16.152096Z","epoch_age_seconds":80794,"freshness":"FRESH","line1":"1 69291U 26118AA  26262.91338139 -.00001099  00000+0 -11515-3 0  9996","line2":"2 69291  51.9017 329.1554 0001035  76.0589 284.0488 14.79930746 18367","mean_motion":14.79930746,"eccentricity":0.0001035,"inclination_deg":51.9017,"raan_deg":329.1554,"arg_perigee_deg":76.0589,"mean_anomaly_deg":284.0488,"bstar":-0.00011515,"rev_number":1836,"period_min":97.30185036645,"perigee_km":628.81744964993,"apogee_km":630.26803935704,"semimajor_km":7007.6797445035,"source":"CELESTRAK","updated_at":"2026-09-20T09:00:24.783444Z"}}}